Вернуться в каталог

ARIANE 2 DEB

LostGTO
NORAD 33549·DEBRIS·🇫🇷 France

Запущен Jan 27, 1989 с Guiana Space Centre

Loading…

TLE

УстаревшееSource: Space-Track

Эпоха: May 31, 2019, 01:38 UTC

1 33549U 89006AR  19151.06814446  .00000073  00000-0  73160-2 0  9996
2 33549   7.0140 195.3239 7090333 254.3176  35.9651  2.25257108111771

Отслеживайте ARIANE 2 DEB в реальном времени с AllMySat

Download on the App Store